Temp
4 5 5 6 6 6 6 6 6 7 7 7 7 7 7 7 7 7 7 7 7 7 7 7 7 7 7 7 7 7 7 7 7 7 7 7 6 6 6 6 6 6 5 5 5 5 4 3 3 3 3 3 3 3 2 2 2 3 2 3 4 5 5 5 5 6 8 9 9 9 10 10 11 10 11 11 11 11 11 11 11 11 11 11 11
4 4 5 6 6 6 6 7 7 7 7 7 7 7 7 7 7 7 7 7 7 7 7 7 7 7 7 7 6 6 6 6 6 6 6 6 6 6 5 5 5 5 5 5 4 4 4 3 2 3 3 3 3 2 2 2 2 2 2 2 2 3 3 4 4 4 6 8 8 9 10 10 10 10 10 11 11 11 11 11 11 11 11 11 11
4 4 5 6 6 6 6 7 7 7 7 7 7 7 7 6 6 7 7 7 7 7 7 7 7 7 6 6 6 6 6 6 6 6 6 6 5 5 5 5 5 5 4 4 3 3 2 2 1 2 2 2 2 2 2 2 3 3 2 2 2 2 2 3 3 3 4 6 8 8 9 9 10 10 10 10 11 11 11 11 11 11 11 11 11
5 6 6 6 6 6 6 6 7 7 6 6 6 6 6 6 6 6 6 7 7 7 7 7 6 6 6 6 6 6 6 6 6 6 6 5 5 5 5 5 4 4 3 3 2 2 1 1 1 1 1 1 2 2 2 3 3 3 2 2 2 2 2 2 2 2 3 4 6 7 8 8 9 10 10 10 10 11 11 11 11 11 11 11 11
6 6 6 6 6 6 6 6 6 6 6 6 6 6 6 6 6 6 6 6 6 6 6 6 6 6 6 6 6 6 6 6 6 5 5 5 5 5 4 4 3 3 2 2 2 1 1 1 1 0 0 0 1 1 1 2 2 2 2 2 2 2 2 2 2 2 2 2 4 6 7 8 8 9 9 10 10 11 11 11 11 11 11 11 11
5 6 6 6 6 6 6 6 6 6 6 6 6 6 6 6 6 6 6 6 6 6 6 6 6 6 6 6 6 6 5 5 5 5 5 5 4 4 4 3 2 2 1 1 0 0 0 0 0 0 0 0 1 1 1 1 1 1 0 0 1 1 1 2 1 1 1 2 2 4 6 7 7 8 9 10 10 10 11 11 11 11 11 11 11
5 5 6 5 6 6 6 6 6 6 6 6 6 6 6 6 6 6 6 6 5 5 5 5 5 6 6 5 5 5 5 5 5 5 4 4 4 3 3 2 2 1 0 0 0 0 -0 -0 -0 -0 -0 0 1 1 0 -0 -0 -0 -1 -1 -0 -0 0 1 2 1 1 1 2 2 4 5 6 7 8 9 9 10 10 10 10 11 11 11 11
4 5 5 5 5 5 5 5 6 6 6 6 6 6 6 6 6 5 5 5 5 5 5 5 5 5 5 5 4 4 4 4 4 5 4 4 4 3 2 2 1 1 0 -0 -0 -0 -0 -0 -1 -1 -1 -1 -0 0 -0 -1 -1 -1 -1 -1 -1 -1 -1 0 1 1 1 1 1 2 2 4 5 6 7 8 8 9 10 10 10 10 11 11 11
4 5 5 5 5 5 5 5 5 5 5 5 5 5 5 5 5 5 5 5 5 5 5 5 5 5 5 4 4 3 4 4 3 4 4 4 5 4 2 1 1 0 -0 -0 -0 -0 -1 -1 -1 -1 -2 -2 -2 -1 -0 0 -0 -1 -0 -0 -1 -1 -1 -1 -0 0 0 0 1 1 2 2 3 5 6 7 7 8 9 9 10 10 10 10 11
5 5 5 5 5 5 5 5 5 5 5 5 5 5 5 5 5 5 5 5 5 5 5 5 5 5 4 4 2 2 3 3 3 3 4 4 5 4 1 0 0 -0 -0 -0 -1 -1 -1 -1 -1 -2 -2 -2 -2 -2 -0 1 1 1 0 0 -0 -1 -2 -1 -1 -1 -0 0 0 1 1 2 2 3 5 6 7 8 9 9 9 10 10 10 10
5 5 5 5 5 5 5 5 5 5 5 5 5 5 5 5 5 5 5 5 5 5 5 4 5 4 4 3 2 1 2 3 3 4 4 4 5 4 1 -0 -0 -0 -0 -0 -1 -1 -1 -2 -2 -2 -2 -2 -2 -2 -1 1 1 1 1 1 0 -1 -2 -1 -1 -1 -1 -0 -0 0 1 1 2 2 3 5 7 7 8 9 9 9 10 10 10
5 5 5 5 4 4 4 4 4 4 4 5 5 5 5 5 5 5 5 4 4 4 4 4 4 4 3 2 2 2 2 3 3 4 4 4 4 3 0 -1 -0 -1 -1 -1 -1 -1 -2 -2 -2 -2 -2 -2 -2 -2 -1 0 1 1 1 2 1 -1 -1 -1 -1 -1 -1 -1 -1 -0 0 1 1 2 2 3 4 6 7 8 9 9 9 10 10
5 5 4 4 4 4 4 4 4 4 4 4 4 4 4 4 4 4 4 4 4 4 4 4 4 4 3 2 2 2 3 3 3 4 4 4 4 2 -0 -1 -1 -1 -1 -1 -1 -2 -2 -2 -2 -2 -2 -2 -3 -2 -2 -1 0 1 1 1 0 -0 -0 -0 -1 -1 -1 -1 -1 -0 0 0 1 2 2 3 3 4 6 8 8 9 9 9 10
4 4 4 4 4 4 4 4 4 4 4 4 4 4 4 4 4 4 4 4 4 4 4 4 4 4 3 2 1 2 3 3 3 4 4 3 3 1 -1 -1 -1 -1 -1 -1 -1 -1 -2 -2 -2 -2 -2 -3 -3 -2 -2 -1 -1 -0 -1 -1 -1 -0 0 -0 -1 -1 -1 -1 -1 -1 0 1 1 2 3 3 3 4 5 7 8 8 8 9 9
4 4 4 3 3 3 4 4 4 4 4 4 4 4 4 4 4 4 4 4 4 4 3 3 3 3 3 2 1 1 2 2 3 3 3 3 2 -0 -1 -1 -1 -1 -1 -1 -0 -1 -2 -2 -2 -2 -2 -3 -3 -2 -2 -1 -1 -2 -2 -2 -2 -1 -1 -1 -1 -1 -1 -1 -0 -0 0 1 1 2 2 2 3 4 5 6 7 7 8 9 9
4 4 4 3 3 3 3 4 4 3 4 4 4 4 4 4 4 4 4 4 4 3 3 3 3 3 3 2 1 1 1 2 2 2 2 2 1 -1 -1 -1 -1 -1 -0 -0 -1 -1 -2 -2 -2 -2 -3 -3 -2 -2 -2 -1 -2 -2 -3 -2 -2 -2 -1 -1 -1 -1 -1 -0 0 0 0 1 1 2 3 3 3 4 5 5 6 7 7 8 9
3 4 3 3 3 3 3 3 3 3 3 3 3 3 4 4 4 3 3 3 3 3 3 3 3 3 2 2 1 0 1 1 1 1 1 1 0 -1 -1 -1 -1 -0 -0 -0 -1 -1 -1 -2 -2 -2 -2 -2 -2 -2 -2 -2 -2 -3 -3 -3 -2 -2 -1 -1 -1 -1 -1 -0 0 0 0 0 0 1 3 2 3 4 4 5 7 7 7 7 8
3 3 3 3 3 3 3 3 3 3 3 3 3 3 3 3 3 3 3 3 3 3 2 2 3 2 2 2 2 0 0 1 1 1 1 1 -0 -1 -1 -1 -1 -0 -0 -0 -1 -1 -1 -2 -2 -2 -2 -2 -2 -2 -2 -2 -2 -3 -3 -3 -3 -2 -1 -1 -1 -1 -1 -1 0 0 0 0 0 1 2 2 3 4 4 5 7 7 7 7 8
3 3 3 2 3 3 3 3 3 3 3 3 3 3 3 3 3 3 3 3 3 3 2 2 2 2 2 2 1 1 0 0 0 0 0 0 -1 -1 -1 -1 -1 -1 -1 -1 -1 -1 -1 -1 -2 -2 -2 -2 -2 -2 -2 -2 -2 -3 -3 -3 -3 -3 -2 -1 -1 -1 -1 -1 -1 -0 0 -0 -0 1 2 2 3 3 4 5 6 7 7 7 8
3 2 2 3 3 3 3 3 3 3 3 3 3 3 3 3 3 3 2 2 2 2 2 2 2 2 2 1 1 1 1 0 0 0 -0 -0 -1 -1 -2 -2 -2 -1 -1 -1 -1 -1 -1 -1 -2 -2 -1 -1 -2 -2 -2 -2 -2 -3 -3 -3 -3 -3 -2 -2 -2 -2 -2 -2 -1 -1 -1 -1 -1 0 1 2 3 3 4 5 6 6 7 7 8
2 2 2 3 3 3 3 3 3 3 3 3 3 3 3 3 3 3 2 2 2 2 2 2 2 2 2 1 1 1 1 1 0 0 -0 -1 -1 -1 -2 -2 -2 -2 -1 -1 -1 -1 -1 -2 -2 -2 -1 -1 -2 -2 -2 -2 -2 -3 -3 -3 -3 -3 -2 -2 -2 -1 -1 -1 -1 -1 -1 -1 -1 -0 0 1 2 3 4 4 5 6 6 7 8
2 2 2 2 2 2 2 3 3 3 3 3 3 3 3 3 3 2 2 2 2 2 2 1 1 1 1 1 1 1 1 1 0 0 -0 -0 -1 -1 -2 -2 -2 -2 -1 -1 -1 -1 -1 -2 -2 -2 -1 -2 -2 -3 -3 -2 -2 -2 -2 -2 -2 -2 -2 -2 -1 -1 -1 -1 -1 -2 -1 -1 -1 -1 -0 1 2 3 3 4 5 6 6 7 8
2 2 2 2 2 2 2 3 3 3 3 3 3 3 3 2 2 2 2 2 1 2 1 1 1 1 1 0 0 0 -0 -0 0 1 0 0 -0 -1 -2 -2 -2 -2 -2 -1 -1 -2 -2 -2 -2 -2 -2 -3 -3 -2 -2 -2 -2 -2 -2 -2 -2 -2 -1 -1 -1 -1 -1 -1 -1 -2 -2 -1 -1 -1 -0 0 1 2 3 4 5 6 6 7 8
2 2 2 2 1 1 2 2 2 3 3 3 2 3 2 2 2 2 1 1 1 1 1 1 1 1 1 1 0 -0 -0 -1 -0 1 1 1 0 -1 -1 -1 -1 -2 -2 -2 -2 -2 -2 -3 -3 -2 -3 -3 -3 -2 -2 -2 -2 -2 -2 -2 -2 -2 -2 -2 -1 -1 -1 -1 -1 -2 -2 -2 -2 -1 -1 -0 1 2 3 3 4 5 6 7 8
2 2 2 2 1 1 2 2 2 2 2 2 2 2 2 1 1 1 1 1 2 2 2 1 1 1 1 1 0 -0 -0 -1 -0 1 1 1 -0 -1 -1 -1 -1 -1 -2 -2 -2 -2 -2 -3 -3 -2 -2 -2 -2 -2 -2 -2 -2 -2 -2 -3 -2 -2 -2 -2 -2 -1 -1 -1 -1 -2 -2 -2 -2 -2 -1 -1 0 1 2 3 4 5 5 6 7
2 2 2 2 2 2 2 1 2 2 2 1 1 1 1 1 1 2 2 2 2 1 1 1 1 1 1 1 0 0 -0 -1 -0 0 1 0 -0 -1 -1 -1 -0 -1 -2 -2 -2 -2 -2 -2 -2 -2 -2 -2 -2 -2 -2 -2 -2 -2 -2 -3 -3 -2 -2 -2 -2 -2 -2 -1 -1 -2 -2 -2 -2 -2 -2 -1 -1 0 1 2 3 4 4 5 6
2 2 2 2 2 2 2 2 2 2 2 1 1 1 1 1 1 2 2 2 2 1 1 1 1 1 1 0 0 0 -0 -1 -0 0 0 0 -0 -1 -1 -0 -0 -1 -2 -2 -2 -2 -1 -1 -2 -2 -2 -2 -2 -2 -2 -2 -2 -2 -2 -2 -3 -2 -2 -2 -2 -2 -2 -2 -2 -2 -2 -2 -2 -2 -2 -2 -1 -1 0 1 2 3 3 4 5
2 2 2 2 2 2 2 2 2 2 2 2 2 2 2 2 2 2 1 1 1 1 1 1 0 0 0 0 0 0 -0 -1 -0 -0 -0 -0 -0 -1 -1 -0 -0 -1 -2 -3 -2 -2 -1 -1 -1 -2 -2 -1 -2 -2 -2 -2 -2 -2 -2 -2 -2 -2 -2 -2 -2 -2 -2 -2 -2 -2 -2 -2 -2 -2 -2 -2 -2 -1 -1 0 1 1 2 3 4
2 3 3 3 2 2 2 2 2 2 2 2 2 2 2 2 2 1 1 1 1 1 1 1 0 0 -0 -0 -0 -0 -1 -1 -0 -0 -1 -1 -1 -1 -1 -1 -0 -1 -2 -3 -2 -1 -1 -1 -1 -1 -1 -1 -2 -2 -2 -2 -2 -2 -2 -2 -2 -3 -3 -2 -2 -2 -2 -2 -2 -2 -2 -2 -2 -2 -2 -2 -2 -2 -1 -0 0 1 1 2 2
3 3 3 3 3 2 2 2 2 2 2 2 2 2 2 2 2 1 1 1 1 1 1 1 1 0 -0 -0 -0 -0 -0 -0 -0 -0 -0 -1 -1 -1 -1 -1 -1 -1 -2 -2 -2 -1 -1 -1 -1 -2 -1 -2 -2 -2 -2 -2 -2 -2 -2 -2 -2 -2 -3 -3 -2 -2 -2 -2 -2 -2 -2 -2 -2 -2 -2 -2 -2 -2 -2 -1 -1 -1 -0 0 1
3 3 3 3 3 3 3 3 2 2 3 3 2 2 2 2 2 1 1 1 1 1 1 1 1 1 0 -0 -0 0 -0 -0 -0 -0 -0 -0 -1 -1 -1 -1 -1 -1 -2 -2 -2 -1 -1 -1 -1 -1 -1 -2 -2 -2 -2 -2 -2 -2 -2 -2 -2 -2 -2 -3 -2 -2 -2 -2 -2 -2 -2 -2 -2 -2 -2 -2 -2 -2 -2 -2 -2 -2 -1 -1 -0
3 3 3 3 3 2 3 3 3 2 3 3 3 3 2 2 2 2 1 1 1 1 1 1 0 0 0 0 -0 -0 -0 -0 -0 -0 -0 -0 -0 -1 -0 -0 -1 -2 -2 -2 -1 -1 -1 -1 -1 -1 -1 -1 -2 -2 -2 -2 -2 -2 -2 -2 -2 -2 -2 -3 -2 -2 -2 -2 -3 -3 -3 -2 -2 -2 -2 -2 -2 -2 -2 -3 -3 -3 -2 -2 -1
3 3 3 3 3 2 3 3 3 3 3 3 3 3 3 3 3 2 2 1 1 1 1 1 0 0 0 0 -0 -0 -0 -0 -0 -0 -0 -0 -0 -0 -0 -0 -1 -2 -2 -1 -1 -1 -1 -1 -1 -1 -1 -1 -1 -1 -2 -2 -2 -2 -2 -2 -2 -2 -2 -2 -2 -2 -2 -2 -3 -3 -3 -2 -2 -2 -2 -2 -2 -2 -2 -2 -3 -3 -3 -3 -2
3 3 3 3 3 3 3 3 3 3 3 3 3 3 3 3 3 3 2 2 2 1 1 1 1 0 0 0 -0 -0 0 -0 -0 -0 -0 -0 -0 -0 -0 -1 -2 -2 -1 -1 -1 -0 -0 -1 -1 -1 -1 -1 -1 -1 -1 -2 -2 -2 -2 -2 -2 -2 -2 -2 -2 -2 -2 -2 -2 -3 -2 -2 -2 -2 -2 -2 -2 -2 -2 -2 -2 -3 -3 -3 -3
3 3 3 3 3 3 3 3 3 3 3 3 3 3 3 3 2 2 2 2 2 2 2 1 1 1 0 0 0 0 0 0 0 -0 -0 -0 -0 -0 -1 -1 -1 -1 -1 -1 -1 -0 -0 -1 -1 -1 -1 -1 -1 -1 -2 -2 -2 -2 -2 -2 -2 -2 -3 -3 -2 -2 -2 -2 -2 -2 -2 -2 -2 -2 -2 -2 -2 -2 -2 -2 -2 -3 -3 -3 -3
4 3 3 3 3 3 3 3 3 3 3 3 3 3 3 3 2 2 2 2 2 2 2 2 2 1 1 0 0 0 0 0 0 0 0 0 -0 -0 -1 -1 -1 -1 -1 -1 -1 -1 -1 -1 -1 -1 -1 -1 -1 -1 -2 -2 -2 -2 -2 -3 -2 -3 -3 -3 -2 -2 -2 -2 -2 -2 -2 -2 -2 -2 -2 -2 -2 -2 -2 -2 -2 -3 -3 -3 -3
4 4 3 3 3 3 3 3 3 3 3 3 3 3 3 3 3 3 3 2 2 2 2 2 2 2 1 1 1 1 0 0 0 -0 -0 -0 -0 -1 -1 -0 -0 -1 -1 -1 -1 -1 -1 -1 -1 -1 -1 -2 -2 -2 -2 -2 -2 -2 -3 -3 -3 -3 -3 -3 -2 -2 -2 -3 -3 -2 -2 -2 -1 -2 -2 -2 -2 -2 -2 -2 -2 -2 -2 -2 -3
4 4 3 3 3 3 3 3 3 3 2 2 3 3 3 3 3 3 3 2 2 2 2 2 2 2 2 2 1 1 0 0 0 0 0 -0 -0 -0 -0 -0 -0 -0 -1 -1 -1 -1 -1 -1 -1 -1 -2 -2 -2 -2 -2 -2 -2 -3 -3 -3 -3 -3 -3 -3 -2 -2 -2 -3 -2 -2 -2 -2 -1 -1 -1 -2 -2 -2 -1 -2 -2 -2 -2 -2 -2
3 3 3 3 3 3 3 3 3 3 2 3 3 3 3 3 3 3 3 3 2 2 2 2 2 2 2 2 1 1 1 1 1 1 0 0 0 -0 -0 -0 -0 -0 -1 -1 -1 -1 -1 -1 -1 -1 -2 -2 -2 -2 -2 -2 -3 -3 -3 -3 -3 -3 -3 -3 -3 -2 -3 -3 -2 -2 -2 -2 -1 -1 -1 -1 -1 -1 -1 -1 -2 -2 -2 -2 -2
4 3 3 3 3 3 3 3 3 3 3 3 3 3 3 3 3 3 3 3 3 2 2 2 3 2 2 2 1 1 1 1 1 1 1 0 0 0 0 0 -0 -0 -1 -1 -1 -1 -1 -1 -1 -1 -2 -2 -2 -3 -3 -3 -3 -3 -3 -3 -3 -3 -3 -3 -3 -2 -3 -3 -2 -2 -2 -2 -2 -1 -1 -1 -1 -1 -1 -1 -1 -2 -2 -2 -2
4 4 3 3 3 3 3 3 3 3 3 3 3 3 3 3 3 3 3 3 3 3 2 2 3 2 2 2 1 1 1 1 1 1 1 1 0 0 0 -0 -0 -0 -1 -1 -1 -1 -1 -2 -2 -2 -2 -2 -3 -3 -3 -3 -3 -3 -3 -3 -3 -3 -3 -3 -3 -2 -3 -3 -3 -2 -2 -2 -2 -2 -2 -1 -1 -1 -1 -1 -1 -1 -2 -2 -2
4 4 3 3 3 3 3 3 3 3 3 3 3 3 3 3 3 3 3 3 3 3 2 2 3 2 2 2 1 1 1 1 1 1 1 1 1 0 0 -0 -0 -0 -1 -1 -1 -1 -2 -2 -2 -2 -2 -3 -3 -3 -3 -3 -3 -3 -3 -3 -3 -3 -3 -3 -3 -2 -2 -3 -3 -3 -2 -2 -2 -2 -2 -1 -1 -1 -1 -1 -1 -1 -1 -2 -2
4 4 4 3 3 3 3 3 3 3 3 3 3 3 3 3 3 3 3 3 2 2 2 2 3 3 2 2 1 1 1 1 1 1 1 1 1 0 0 0 0 -0 -1 -1 -1 -1 -2 -2 -2 -2 -2 -2 -3 -3 -3 -3 -3 -3 -3 -3 -3 -3 -3 -3 -3 -3 -2 -3 -3 -3 -3 -2 -2 -2 -2 -2 -1 -1 -1 -1 -1 -1 -1 -1 -1
4 4 4 3 3 3 3 3 3 3 3 3 3 3 3 3 3 3 3 3 3 2 2 3 3 3 2 2 2 1 1 1 1 1 1 1 1 0 0 0 -0 -1 -1 -1 -1 -1 -2 -2 -2 -2 -2 -2 -2 -3 -3 -3 -3 -3 -3 -3 -3 -3 -3 -3 -3 -3 -3 -3 -3 -3 -3 -3 -2 -2 -2 -2 -2 -1 -2 -2 -1 -1 -1 -1 -1
4 4 4 4 3 3 3 3 3 3 3 3 3 3 3 3 3 3 3 3 3 3 3 3 3 2 2 2 2 2 2 2 2 1 1 1 1 1 0 0 -0 -1 -1 -1 -1 -1 -1 -1 -2 -2 -2 -2 -2 -2 -3 -3 -3 -3 -3 -3 -2 -2 -3 -3 -3 -3 -3 -2 -3 -3 -3 -3 -3 -2 -2 -2 -2 -2 -2 -2 -2 -1 -1 -1 -2
4 4 4 4 4 4 3 3 3 3 3 3 3 3 3 3 3 3 3 3 3 3 3 3 3 3 2 2 2 2 2 2 2 2 1 1 1 1 1 0 -0 -1 -1 -1 -1 -1 -1 -1 -1 -2 -2 -2 -2 -2 -3 -3 -3 -3 -3 -3 -2 -2 -2 -2 -2 -3 -3 -2 -3 -3 -3 -3 -3 -3 -2 -2 -2 -2 -2 -2 -2 -1 -1 -1 -1
3 3 3 4 4 4 3 3 3 3 3 3 3 4 4 4 3 3 3 3 3 3 3 3 3 3 3 3 2 2 2 2 2 2 1 1 1 1 1 0 -0 -0 -1 -1 -1 -1 -2 -2 -2 -1 -1 -1 -1 -2 -2 -3 -3 -3 -3 -3 -2 -2 -2 -2 -2 -2 -3 -2 -2 -3 -3 -3 -3 -3 -2 -2 -2 -2 -2 -2 -2 -2 -1 -1 -1
3 3 3 3 3 3 4 3 3 3 3 3 3 3 3 3 3 3 3 3 3 3 3 3 3 3 3 3 3 2 2 2 2 2 2 1 1 1 1 0 -0 -0 -1 -1 -1 -1 -1 -1 -1 -1 -1 -1 -1 -2 -2 -3 -3 -3 -3 -3 -3 -2 -2 -2 -2 -2 -2 -2 -2 -3 -3 -3 -3 -3 -3 -2 -2 -2 -2 -2 -2 -2 -2 -1 -1
3 3 3 3 3 4 4 4 3 3 3 3 3 3 3 3 3 3 3 3 3 3 3 3 3 3 3 3 3 3 2 2 2 2 2 2 1 1 1 0 0 -0 -0 -1 -1 -1 -1 -1 -1 -1 -1 -2 -2 -2 -2 -3 -3 -3 -3 -3 -2 -2 -2 -2 -2 -2 -2 -2 -2 -3 -2 -2 -2 -3 -3 -2 -2 -2 -2 -2 -2 -2 -2 -2 -1
3 3 3 3 3 3 4 4 4 4 4 4 4 4 3 3 3 3 3 3 3 3 3 3 3 3 3 3 3 3 3 3 2 2 2 2 2 1 1 1 0 0 -0 -0 -1 -1 -1 -1 -2 -1 -1 -1 -2 -2 -2 -3 -3 -3 -3 -2 -2 -2 -3 -2 -2 -2 -2 -2 -2 -2 -2 -2 -2 -2 -2 -2 -3 -2 -2 -2 -2 -2 -2 -2 -2
3 3 3 3 3 3 3 4 4 4 4 4 4 4 4 4 4 4 4 4 3 3 3 3 3 3 3 3 3 3 3 3 3 2 2 2 2 2 1 1 0 0 -0 -0 -1 -1 -1 -1 -2 -2 -2 -2 -2 -2 -2 -3 -3 -2 -2 -2 -2 -2 -3 -3 -2 -2 -2 -2 -2 -2 -2 -2 -2 -2 -2 -2 -2 -2 -2 -2 -2 -2 -2 -2 -2
Height
1558 1559 1558 1558 1558 1558 1558 1558 1558 1559 1559 1559 1559 1560 1560 1560 1560 1559 1559 1558 1558 1557 1557 1556 1555 1554 1553 1552 1551 1550 1549 1548 1546 1545 1544 1543 1542 1541 1539 1538 1536 1535 1533 1531 1530 1528 1526 1525 1524 1522 1519 1517 1515 1513 1512 1510 1508 1506 1504 1502 1500 1497 1494 1491 1486 1479 1475 1476 1474 1471 1471 1470 1469 1468 1465 1462 1461 1461 1460 1459 1459 1458 1458 1458 1459
1559 1559 1559 1559 1559 1559 1559 1559 1560 1560 1560 1560 1560 1560 1560 1560 1560 1560 1559 1559 1558 1558 1557 1556 1556 1555 1554 1553 1551 1550 1549 1548 1546 1545 1544 1543 1542 1540 1539 1537 1536 1534 1532 1531 1529 1527 1525 1524 1522 1520 1518 1516 1514 1512 1511 1509 1506 1504 1502 1500 1497 1495 1492 1489 1484 1478 1472 1470 1470 1468 1467 1467 1465 1463 1463 1460 1457 1457 1457 1456 1455 1454 1454 1454 1455
1560 1560 1560 1560 1560 1560 1560 1560 1561 1561 1561 1561 1561 1561 1561 1561 1561 1560 1560 1559 1559 1558 1558 1557 1556 1555 1554 1553 1552 1550 1549 1548 1547 1545 1544 1543 1541 1540 1538 1536 1535 1533 1532 1530 1528 1526 1524 1523 1521 1519 1517 1515 1513 1511 1509 1506 1504 1501 1499 1497 1494 1492 1490 1487 1483 1478 1472 1467 1466 1465 1463 1462 1461 1459 1459 1457 1454 1453 1453 1452 1451 1451 1451 1451 1452
1560 1560 1560 1560 1560 1561 1561 1561 1561 1561 1561 1562 1561 1561 1561 1561 1561 1561 1560 1560 1559 1559 1558 1557 1557 1556 1554 1553 1552 1551 1549 1548 1547 1546 1544 1542 1541 1539 1538 1536 1534 1533 1531 1529 1527 1526 1524 1522 1521 1519 1516 1514 1511 1509 1507 1504 1501 1499 1496 1494 1492 1489 1486 1484 1481 1478 1472 1466 1463 1463 1461 1459 1457 1456 1455 1454 1451 1450 1449 1448 1448 1447 1447 1447 1448
1560 1560 1561 1561 1561 1561 1562 1562 1562 1562 1562 1562 1562 1562 1562 1562 1562 1561 1561 1560 1560 1559 1558 1557 1557 1556 1554 1553 1552 1551 1550 1548 1547 1545 1544 1542 1540 1539 1537 1535 1534 1532 1530 1529 1527 1525 1524 1522 1521 1519 1516 1513 1510 1507 1505 1502 1499 1497 1494 1492 1489 1486 1483 1480 1478 1475 1472 1467 1462 1459 1458 1456 1454 1452 1452 1451 1448 1446 1445 1444 1443 1442 1442 1443 1444
1560 1561 1561 1561 1562 1562 1563 1563 1563 1563 1563 1563 1563 1563 1562 1562 1562 1561 1561 1561 1560 1559 1559 1558 1557 1556 1555 1554 1552 1551 1550 1548 1547 1545 1544 1542 1540 1539 1537 1535 1534 1532 1530 1529 1527 1525 1523 1522 1521 1518 1515 1512 1509 1506 1503 1500 1497 1494 1492 1489 1487 1484 1481 1478 1475 1472 1469 1465 1461 1457 1454 1453 1451 1448 1448 1449 1446 1443 1441 1440 1439 1438 1438 1439 1440
1561 1561 1562 1562 1563 1563 1564 1564 1564 1564 1564 1564 1564 1563 1563 1563 1562 1562 1561 1561 1560 1560 1559 1558 1557 1556 1555 1554 1553 1551 1550 1549 1547 1545 1544 1542 1540 1539 1537 1536 1534 1532 1530 1529 1527 1525 1524 1522 1520 1517 1515 1511 1508 1505 1502 1499 1496 1493 1490 1487 1484 1482 1478 1475 1472 1469 1466 1462 1459 1456 1452 1450 1448 1446 1445 1445 1443 1441 1439 1437 1435 1435 1435 1435 1436
1561 1562 1562 1563 1564 1564 1564 1565 1565 1565 1565 1564 1564 1564 1563 1563 1563 1562 1562 1561 1561 1560 1559 1559 1558 1557 1556 1554 1553 1552 1550 1549 1547 1545 1544 1542 1540 1539 1537 1535 1534 1532 1530 1529 1527 1526 1524 1522 1520 1517 1514 1511 1508 1505 1502 1499 1495 1492 1489 1486 1482 1479 1476 1473 1469 1466 1463 1460 1456 1453 1450 1447 1445 1443 1442 1441 1440 1437 1436 1435 1432 1431 1432 1432 1433
1562 1563 1563 1564 1565 1565 1565 1565 1565 1565 1565 1565 1565 1564 1564 1564 1563 1563 1563 1562 1561 1561 1560 1559 1558 1557 1556 1555 1554 1552 1550 1549 1547 1545 1543 1542 1540 1538 1537 1535 1533 1531 1530 1528 1527 1526 1524 1521 1518 1516 1513 1510 1507 1504 1501 1499 1495 1491 1487 1483 1480 1476 1473 1470 1467 1464 1461 1457 1453 1450 1447 1444 1442 1440 1438 1437 1436 1434 1433 1432 1429 1428 1429 1428 1427
1562 1563 1564 1564 1565 1566 1566 1566 1566 1566 1566 1566 1566 1565 1565 1564 1564 1564 1563 1562 1562 1561 1561 1560 1559 1558 1557 1555 1554 1552 1551 1549 1548 1546 1544 1542 1539 1537 1536 1535 1533 1531 1530 1528 1527 1525 1523 1520 1517 1514 1511 1508 1505 1502 1499 1497 1494 1490 1486 1482 1478 1474 1470 1467 1465 1462 1459 1455 1451 1448 1444 1441 1439 1437 1435 1432 1432 1430 1429 1428 1426 1425 1426 1425 1423
1562 1563 1564 1565 1566 1566 1567 1567 1567 1567 1567 1566 1566 1566 1566 1565 1565 1564 1564 1563 1562 1562 1561 1560 1559 1558 1557 1556 1555 1553 1551 1550 1548 1546 1544 1541 1539 1536 1536 1535 1533 1532 1530 1528 1527 1524 1521 1519 1516 1513 1510 1507 1504 1500 1497 1493 1491 1488 1484 1480 1476 1473 1469 1466 1462 1460 1457 1453 1449 1446 1442 1438 1435 1434 1432 1429 1428 1427 1425 1424 1423 1422 1422 1421 1420
1562 1563 1564 1565 1566 1567 1567 1568 1568 1568 1567 1567 1567 1567 1566 1566 1565 1565 1564 1563 1563 1562 1562 1561 1559 1558 1557 1556 1555 1554 1552 1550 1548 1545 1543 1541 1538 1536 1536 1535 1533 1532 1531 1528 1527 1524 1521 1518 1516 1513 1510 1506 1503 1499 1494 1490 1487 1484 1480 1477 1473 1470 1468 1465 1461 1457 1454 1450 1446 1443 1440 1436 1432 1430 1429 1427 1424 1422 1421 1420 1419 1419 1418 1418 1417
1562 1563 1564 1566 1566 1567 1568 1568 1568 1568 1568 1568 1567 1567 1567 1567 1566 1565 1565 1564 1564 1563 1562 1561 1560 1559 1558 1557 1556 1554 1552 1550 1548 1545 1543 1540 1538 1536 1536 1535 1534 1533 1531 1529 1527 1525 1522 1519 1516 1513 1510 1507 1503 1498 1492 1488 1484 1480 1476 1473 1470 1467 1465 1462 1458 1455 1451 1448 1443 1439 1436 1433 1429 1425 1424 1423 1421 1418 1416 1416 1416 1415 1415 1414 1414
1563 1564 1565 1566 1566 1568 1568 1569 1569 1569 1568 1568 1568 1568 1568 1567 1567 1566 1565 1565 1564 1563 1563 1562 1560 1559 1558 1558 1556 1554 1552 1550 1548 1545 1543 1540 1538 1537 1537 1536 1534 1534 1532 1530 1528 1526 1523 1520 1517 1514 1511 1507 1503 1497 1492 1487 1482 1477 1474 1470 1467 1463 1460 1457 1454 1451 1448 1445 1440 1435 1432 1430 1425 1421 1419 1419 1417 1414 1412 1412 1411 1411 1410 1410 1410
1563 1564 1565 1566 1567 1568 1569 1569 1569 1569 1569 1569 1569 1569 1568 1568 1567 1567 1566 1566 1565 1564 1563 1562 1561 1560 1559 1558 1557 1555 1553 1551 1548 1546 1543 1540 1538 1538 1538 1537 1535 1535 1533 1531 1529 1526 1523 1520 1517 1514 1511 1507 1503 1497 1491 1486 1480 1476 1472 1468 1465 1461 1457 1454 1451 1447 1444 1440 1435 1430 1426 1424 1421 1417 1414 1414 1412 1410 1408 1407 1406 1406 1406 1405 1406
1563 1564 1565 1566 1567 1568 1569 1569 1569 1569 1569 1569 1569 1569 1569 1568 1568 1567 1567 1566 1565 1565 1564 1563 1562 1561 1560 1558 1557 1556 1554 1552 1549 1546 1543 1541 1539 1539 1539 1537 1536 1535 1533 1531 1529 1527 1524 1521 1518 1514 1510 1507 1502 1497 1491 1486 1480 1476 1471 1467 1463 1459 1455 1452 1448 1443 1439 1435 1431 1426 1422 1419 1416 1413 1410 1409 1407 1405 1403 1401 1401 1401 1401 1401 1401
1563 1564 1565 1567 1568 1569 1569 1569 1569 1569 1570 1570 1569 1569 1569 1569 1568 1568 1567 1567 1566 1565 1565 1564 1563 1562 1561 1559 1558 1557 1555 1552 1549 1547 1544 1541 1539 1539 1539 1538 1536 1535 1533 1531 1529 1527 1524 1521 1518 1514 1510 1506 1501 1496 1491 1485 1480 1476 1471 1465 1461 1456 1452 1448 1443 1439 1435 1430 1426 1422 1417 1414 1412 1409 1406 1404 1402 1401 1398 1395 1395 1397 1397 1396 1395
1564 1565 1566 1567 1568 1569 1569 1569 1570 1570 1570 1570 1570 1569 1569 1569 1569 1568 1568 1567 1567 1566 1565 1565 1564 1562 1561 1560 1559 1557 1556 1553 1550 1548 1545 1542 1540 1540 1540 1538 1537 1536 1534 1532 1530 1528 1525 1522 1518 1514 1510 1506 1501 1496 1491 1486 1481 1476 1471 1465 1460 1454 1450 1445 1439 1434 1429 1425 1421 1417 1413 1410 1407 1404 1401 1399 1397 1396 1394 1391 1392 1393 1393 1392 1392
1564 1565 1566 1567 1568 1569 1569 1570 1570 1570 1570 1570 1570 1570 1570 1570 1569 1569 1568 1568 1568 1567 1566 1566 1565 1563 1562 1561 1559 1558 1556 1554 1551 1549 1547 1544 1542 1541 1541 1539 1537 1536 1534 1532 1530 1528 1525 1522 1519 1515 1510 1506 1501 1496 1491 1487 1481 1477 1472 1466 1460 1454 1449 1444 1438 1432 1426 1421 1417 1413 1408 1405 1403 1400 1397 1394 1393 1392 1390 1388 1388 1388 1387 1387 1388
1564 1565 1566 1567 1568 1569 1569 1570 1570 1570 1570 1570 1570 1570 1570 1570 1570 1569 1569 1569 1568 1568 1567 1566 1565 1564 1563 1562 1560 1558 1556 1554 1552 1550 1548 1546 1543 1542 1541 1539 1537 1536 1535 1533 1530 1528 1525 1522 1519 1515 1510 1506 1501 1496 1492 1488 1483 1479 1474 1467 1461 1455 1449 1444 1439 1433 1427 1420 1415 1411 1406 1402 1399 1396 1393 1390 1388 1387 1386 1384 1383 1383 1383 1383 1384
1564 1565 1566 1567 1568 1569 1569 1569 1570 1570 1570 1570 1570 1571 1571 1571 1570 1570 1570 1570 1569 1568 1568 1567 1566 1565 1564 1563 1561 1559 1557 1555 1553 1551 1549 1547 1545 1542 1541 1540 1537 1536 1535 1533 1531 1528 1525 1522 1519 1515 1510 1505 1501 1496 1493 1489 1485 1480 1475 1469 1463 1456 1450 1444 1439 1433 1427 1421 1415 1409 1404 1400 1396 1393 1390 1387 1385 1383 1382 1381 1380 1379 1379 1379 1380
1564 1565 1566 1567 1568 1569 1569 1569 1570 1570 1570 1571 1571 1571 1571 1571 1570 1570 1570 1570 1570 1569 1568 1568 1567 1566 1565 1563 1562 1560 1558 1556 1554 1552 1550 1548 1546 1543 1542 1540 1538 1536 1535 1533 1531 1528 1525 1522 1519 1514 1509 1504 1500 1497 1494 1490 1485 1481 1475 1470 1463 1457 1450 1445 1439 1433 1427 1421 1415 1409 1404 1399 1394 1390 1387 1384 1382 1380 1379 1378 1377 1376 1375 1376 1377
1564 1565 1567 1567 1568 1569 1569 1569 1570 1570 1571 1571 1571 1571 1571 1571 1571 1571 1571 1571 1571 1570 1570 1569 1568 1567 1566 1565 1563 1561 1559 1557 1555 1553 1551 1549 1547 1544 1542 1540 1538 1536 1535 1534 1531 1528 1525 1522 1518 1513 1508 1504 1501 1498 1495 1491 1486 1481 1476 1470 1464 1457 1451 1446 1440 1433 1427 1422 1416 1409 1404 1399 1394 1389 1385 1382 1380 1378 1376 1374 1373 1372 1372 1372 1373
1564 1565 1567 1567 1568 1569 1569 1569 1570 1570 1571 1571 1571 1572 1572 1572 1572 1572 1572 1572 1572 1572 1571 1570 1569 1568 1567 1566 1564 1563 1561 1559 1557 1554 1552 1549 1547 1544 1542 1540 1538 1535 1534 1533 1531 1528 1525 1521 1517 1513 1509 1505 1502 1499 1496 1492 1487 1482 1476 1470 1464 1458 1452 1447 1441 1434 1429 1423 1417 1410 1405 1400 1395 1390 1386 1382 1379 1377 1375 1373 1371 1370 1369 1369 1370
1564 1565 1567 1567 1568 1569 1569 1570 1570 1571 1571 1571 1572 1572 1572 1572 1573 1573 1572 1573 1572 1572 1571 1570 1569 1569 1568 1566 1565 1563 1562 1560 1557 1555 1552 1549 1546 1544 1542 1540 1537 1535 1533 1532 1529 1526 1524 1520 1517 1513 1510 1506 1503 1500 1497 1493 1488 1483 1477 1471 1466 1460 1454 1448 1442 1436 1430 1425 1419 1413 1407 1402 1397 1392 1388 1383 1380 1377 1374 1372 1370 1369 1368 1368 1368
1564 1566 1567 1567 1568 1569 1570 1571 1571 1571 1571 1572 1572 1573 1573 1573 1573 1573 1573 1573 1572 1572 1572 1571 1570 1569 1568 1566 1565 1564 1562 1560 1557 1555 1552 1549 1547 1544 1542 1540 1537 1534 1532 1530 1528 1526 1524 1521 1517 1514 1511 1508 1504 1501 1497 1494 1489 1484 1479 1474 1468 1462 1456 1451 1444 1438 1433 1427 1422 1416 1410 1405 1400 1394 1388 1384 1380 1377 1375 1372 1371 1369 1368 1368 1367
1564 1565 1567 1567 1568 1570 1570 1571 1571 1571 1571 1572 1573 1573 1573 1573 1574 1574 1574 1573 1573 1572 1572 1571 1570 1569 1568 1567 1566 1564 1563 1560 1557 1555 1552 1549 1547 1545 1542 1540 1537 1534 1532 1530 1527 1526 1525 1522 1518 1515 1512 1509 1505 1502 1498 1494 1490 1486 1482 1477 1472 1466 1460 1455 1449 1442 1437 1431 1426 1420 1414 1408 1402 1396 1390 1385 1382 1379 1376 1374 1372 1370 1369 1368 1367
1563 1565 1566 1567 1568 1569 1570 1570 1571 1572 1572 1572 1573 1573 1573 1574 1574 1573 1573 1573 1572 1572 1571 1571 1570 1569 1568 1567 1566 1564 1563 1560 1557 1554 1552 1549 1547 1545 1542 1540 1537 1534 1532 1530 1527 1526 1525 1522 1519 1516 1513 1510 1506 1502 1499 1495 1491 1488 1484 1479 1475 1469 1463 1458 1452 1446 1440 1435 1430 1423 1417 1411 1405 1399 1393 1388 1385 1382 1378 1376 1374 1372 1370 1369 1367
1563 1564 1566 1567 1568 1569 1570 1570 1570 1572 1572 1572 1573 1573 1573 1573 1573 1573 1572 1571 1571 1571 1570 1570 1569 1568 1567 1567 1565 1564 1563 1560 1557 1555 1552 1550 1548 1545 1543 1541 1537 1534 1532 1530 1528 1527 1525 1522 1520 1516 1513 1510 1507 1503 1499 1496 1492 1489 1485 1481 1477 1472 1466 1459 1453 1447 1442 1438 1432 1427 1421 1415 1409 1403 1397 1392 1388 1385 1381 1378 1376 1375 1373 1372 1370
1562 1564 1565 1566 1567 1568 1569 1570 1570 1571 1572 1572 1572 1572 1572 1572 1572 1572 1571 1571 1570 1570 1569 1569 1568 1567 1566 1566 1564 1563 1561 1559 1557 1555 1553 1551 1549 1546 1544 1542 1539 1535 1533 1531 1529 1528 1526 1523 1520 1517 1514 1511 1508 1504 1501 1497 1493 1490 1486 1483 1479 1474 1469 1463 1457 1451 1446 1441 1436 1431 1425 1420 1414 1409 1403 1397 1393 1389 1385 1383 1381 1379 1377 1375 1373
1561 1563 1564 1566 1567 1567 1569 1569 1570 1570 1571 1572 1572 1572 1572 1571 1571 1571 1571 1570 1569 1569 1568 1568 1567 1566 1565 1565 1563 1562 1561 1559 1557 1555 1553 1551 1549 1547 1545 1543 1539 1537 1534 1532 1530 1530 1527 1524 1522 1519 1516 1513 1510 1506 1503 1499 1496 1492 1488 1485 1481 1477 1472 1466 1461 1455 1450 1445 1440 1435 1430 1424 1419 1414 1409 1404 1399 1395 1391 1389 1386 1384 1381 1379 1377
1560 1562 1563 1565 1565 1566 1568 1569 1569 1570 1571 1571 1572 1572 1572 1572 1571 1570 1570 1570 1569 1569 1568 1567 1567 1566 1565 1564 1563 1562 1560 1559 1557 1555 1553 1551 1549 1547 1545 1543 1540 1537 1535 1533 1532 1531 1528 1525 1523 1520 1517 1514 1511 1508 1505 1501 1498 1494 1490 1487 1483 1479 1475 1469 1464 1459 1454 1449 1444 1439 1434 1429 1425 1420 1416 1412 1406 1401 1397 1394 1391 1389 1386 1383 1380
1559 1561 1563 1563 1564 1565 1567 1568 1568 1569 1570 1570 1571 1571 1572 1572 1572 1571 1570 1569 1569 1568 1568 1567 1566 1565 1564 1563 1562 1561 1560 1558 1557 1555 1553 1551 1549 1548 1545 1543 1540 1538 1536 1535 1534 1532 1529 1527 1524 1522 1519 1516 1513 1510 1507 1503 1500 1496 1493 1489 1486 1482 1477 1473 1468 1463 1458 1454 1449 1444 1439 1435 1431 1426 1422 1418 1413 1408 1403 1400 1397 1394 1390 1388 1385
1559 1560 1561 1562 1564 1565 1566 1567 1568 1568 1569 1570 1570 1570 1571 1571 1571 1571 1570 1569 1568 1568 1567 1566 1565 1565 1564 1563 1561 1561 1559 1558 1556 1555 1553 1551 1549 1548 1545 1543 1541 1539 1538 1537 1536 1533 1530 1528 1526 1523 1520 1517 1515 1512 1508 1505 1502 1498 1495 1492 1488 1484 1480 1475 1470 1466 1461 1457 1453 1449 1444 1441 1436 1432 1428 1424 1419 1415 1410 1406 1402 1399 1396 1394 1392
1558 1559 1560 1561 1563 1564 1565 1566 1567 1568 1568 1569 1569 1570 1570 1570 1570 1570 1570 1570 1569 1568 1567 1566 1564 1564 1563 1562 1561 1560 1559 1557 1556 1554 1553 1551 1549 1547 1545 1544 1543 1541 1540 1538 1536 1534 1531 1529 1527 1524 1521 1519 1516 1513 1510 1506 1504 1500 1497 1494 1490 1486 1481 1477 1473 1468 1464 1461 1457 1453 1449 1446 1442 1438 1434 1430 1426 1421 1417 1414 1410 1407 1404 1401 1399
1557 1558 1559 1560 1562 1564 1564 1565 1566 1567 1567 1568 1568 1569 1569 1569 1569 1569 1569 1569 1568 1568 1568 1567 1565 1563 1562 1561 1560 1559 1558 1557 1556 1554 1553 1551 1549 1547 1546 1545 1544 1542 1541 1539 1536 1534 1532 1530 1528 1525 1523 1520 1517 1514 1511 1508 1505 1502 1499 1495 1492 1488 1484 1480 1476 1471 1468 1465 1461 1457 1454 1451 1448 1443 1440 1436 1432 1428 1424 1422 1418 1415 1411 1409 1406
1556 1557 1558 1559 1561 1562 1563 1564 1565 1565 1566 1567 1567 1568 1568 1568 1568 1568 1568 1568 1567 1567 1567 1566 1565 1563 1562 1560 1559 1559 1558 1556 1555 1553 1552 1551 1549 1548 1547 1547 1545 1543 1541 1539 1537 1535 1533 1531 1528 1526 1523 1521 1518 1515 1512 1510 1507 1504 1500 1497 1494 1491 1486 1482 1479 1474 1471 1468 1465 1462 1459 1456 1453 1449 1445 1442 1438 1435 1431 1428 1425 1422 1419 1415 1413
1555 1556 1557 1558 1559 1561 1562 1563 1564 1564 1565 1565 1566 1567 1567 1567 1567 1567 1567 1567 1566 1566 1565 1565 1564 1564 1562 1561 1559 1558 1557 1556 1554 1553 1552 1551 1550 1549 1548 1547 1545 1543 1542 1540 1537 1535 1534 1531 1529 1527 1524 1522 1519 1516 1514 1511 1508 1505 1502 1499 1496 1493 1489 1485 1481 1477 1474 1471 1468 1465 1462 1460 1457 1454 1451 1448 1444 1441 1438 1435 1432 1429 1426 1422 1419
1554 1555 1555 1557 1558 1559 1561 1562 1562 1563 1563 1564 1565 1565 1565 1566 1566 1566 1566 1565 1565 1565 1564 1564 1563 1563 1562 1561 1560 1558 1557 1556 1555 1554 1553 1552 1551 1550 1548 1547 1545 1544 1542 1540 1538 1536 1534 1532 1530 1528 1525 1522 1520 1517 1515 1512 1509 1507 1504 1501 1498 1495 1491 1488 1484 1480 1477 1474 1472 1469 1466 1464 1462 1459 1456 1453 1451 1448 1445 1442 1439 1436 1433 1430 1428
1552 1553 1554 1555 1556 1558 1559 1560 1561 1562 1562 1563 1563 1564 1564 1564 1564 1564 1564 1564 1563 1563 1563 1562 1562 1561 1560 1560 1559 1557 1557 1556 1555 1554 1553 1552 1550 1549 1548 1546 1545 1543 1542 1540 1538 1536 1534 1532 1530 1528 1526 1523 1520 1518 1516 1513 1510 1508 1505 1502 1500 1497 1494 1490 1487 1483 1480 1478 1476 1473 1470 1468 1466 1464 1461 1459 1456 1454 1451 1449 1446 1444 1441 1439 1436
1551 1552 1552 1553 1554 1556 1557 1558 1559 1560 1560 1561 1561 1562 1562 1562 1562 1562 1562 1562 1562 1562 1561 1561 1560 1560 1559 1558 1556 1555 1555 1554 1554 1553 1552 1551 1550 1549 1547 1546 1544 1543 1541 1540 1538 1536 1534 1532 1531 1529 1526 1523 1521 1518 1516 1514 1511 1509 1506 1504 1501 1499 1496 1493 1490 1486 1483 1481 1479 1476 1474 1472 1470 1468 1465 1463 1462 1459 1457 1455 1453 1450 1448 1446 1444
1550 1551 1551 1552 1553 1554 1555 1556 1557 1558 1559 1559 1559 1560 1560 1560 1560 1560 1560 1560 1560 1560 1559 1559 1559 1558 1557 1556 1555 1554 1553 1553 1553 1552 1551 1550 1549 1548 1546 1545 1544 1542 1541 1539 1538 1536 1534 1532 1530 1528 1526 1524 1522 1519 1517 1514 1512 1510 1508 1505 1503 1500 1498 1495 1492 1489 1486 1484 1482 1480 1477 1475 1474 1472 1470 1468 1466 1464 1462 1460 1458 1456 1454 1453 1451
1548 1549 1550 1550 1551 1552 1554 1555 1555 1556 1557 1557 1557 1558 1558 1558 1558 1558 1558 1558 1558 1557 1557 1557 1557 1557 1555 1554 1553 1553 1552 1551 1551 1551 1550 1549 1548 1547 1545 1544 1543 1542 1540 1539 1537 1536 1534 1532 1530 1528 1526 1525 1523 1520 1518 1515 1513 1511 1509 1507 1504 1502 1499 1497 1494 1492 1489 1487 1485 1483 1481 1479 1477 1475 1474 1472 1470 1468 1466 1465 1463 1462 1460 1459 1457
1546 1547 1548 1549 1550 1551 1552 1552 1553 1554 1554 1555 1555 1555 1555 1556 1556 1556 1556 1556 1555 1555 1555 1555 1555 1555 1554 1553 1552 1551 1551 1550 1550 1549 1548 1547 1546 1545 1544 1543 1542 1540 1539 1538 1537 1535 1533 1531 1530 1528 1526 1525 1523 1521 1519 1517 1514 1512 1510 1508 1505 1503 1501 1499 1496 1494 1492 1489 1487 1486 1484 1482 1480 1478 1477 1475 1474 1472 1471 1469 1468 1466 1465 1464 1462
1544 1545 1546 1547 1548 1549 1550 1550 1551 1552 1552 1552 1553 1553 1553 1553 1553 1553 1553 1553 1553 1553 1553 1553 1553 1553 1552 1552 1551 1550 1550 1549 1549 1548 1547 1546 1545 1544 1543 1542 1541 1539 1538 1537 1535 1534 1532 1531 1529 1528 1526 1524 1523 1521 1520 1518 1516 1513 1511 1509 1507 1504 1502 1500 1498 1496 1494 1492 1490 1488 1487 1485 1483 1481 1480 1478 1477 1476 1474 1473 1472 1471 1470 1468 1467
1542 1543 1544 1545 1546 1547 1547 1548 1549 1549 1550 1550 1550 1550 1551 1551 1551 1551 1551 1551 1551 1551 1551 1551 1550 1550 1550 1550 1549 1549 1548 1548 1547 1546 1545 1544 1544 1543 1542 1541 1539 1538 1537 1536 1534 1533 1531 1530 1528 1527 1525 1524 1522 1521 1520 1519 1517 1515 1512 1510 1508 1506 1504 1502 1500 1498 1496 1494 1492 1490 1489 1488 1486 1484 1482 1481 1480 1479 1477 1476 1475 1474 1474 1473 1472
1539 1540 1541 1542 1543 1544 1545 1546 1546 1547 1547 1547 1548 1548 1548 1548 1548 1548 1548 1548 1548 1548 1548 1548 1548 1548 1548 1547 1547 1547 1546 1546 1545 1544 1544 1543 1542 1541 1540 1539 1538 1536 1535 1534 1533 1531 1530 1529 1527 1526 1525 1523 1522 1521 1520 1519 1518 1516 1514 1511 1509 1507 1505 1503 1501 1499 1498 1496 1494 1492 1491 1490 1488 1487 1485 1483 1482 1481 1480 1479 1478 1477 1477 1476 1476
1537 1538 1538 1539 1540 1541 1542 1543 1543 1544 1544 1544 1545 1545 1545 1545 1546 1546 1546 1546 1546 1546 1546 1546 1546 1545 1545 1545 1545 1544 1544 1543 1543 1542 1542 1541 1540 1539 1538 1537 1536 1535 1534 1533 1531 1530 1529 1528 1526 1525 1524 1522 1521 1520 1519 1519 1518 1516 1514 1512 1510 1508 1506 1504 1502 1500 1499 1497 1496 1494 1493 1491 1490 1488 1487 1486 1484 1483 1482 1481 1481 1480 1479 1479 1478
1534 1535 1536 1536 1537 1538 1539 1540 1540 1541 1541 1541 1542 1542 1542 1542 1543 1543 1543 1543 1543 1543 1543 1543 1543 1543 1543 1542 1542 1542 1541 1541 1540 1540 1539 1539 1538 1537 1536 1535 1534 1533 1532 1531 1530 1529 1527 1526 1525 1524 1523 1522 1521 1520 1519 1518 1517 1516 1514 1512 1510 1508 1507 1505 1503 1501 1500 1498 1497 1496 1494 1493 1491 1490 1489 1487 1486 1485 1484 1483 1483 1482 1482 1481 1480
1531 1532 1533 1534 1534 1535 1536 1537 1537 1538 1538 1538 1539 1539 1539 1539 1539 1540 1540 1540 1540 1540 1540 1540 1540 1540 1540 1540 1539 1539 1539 1538 1538 1537 1537 1536 1536 1535 1534 1533 1532 1531 1530 1529 1528 1527 1526 1525 1523 1522 1521 1520 1519 1518 1518 1517 1516 1515 1513 1512 1510 1509 1507 1506 1504 1502 1501 1499 1498 1496 1495 1494 1493 1491 1490 1489 1488 1487 1486 1485 1484 1484 1484 1483 1482
1528 1529 1530 1531 1531 1532 1533 1533 1534 1534 1535 1535 1535 1536 1536 1536 1536 1537 1537 1537 1537 1537 1537 1537 1537 1537 1537 1537 1536 1536 1536 1536 1535 1535 1534 1534 1533 1533 1532 1531 1530 1529 1528 1527 1526 1525 1524 1523 1522 1521 1520 1519 1518 1517 1516 1516 1515 1513 1512 1511 1510 1508 1507 1506 1504 1503 1502 1500 1499 1497 1496 1495 1494 1492 1491 1490 1489 1488 1488 1487 1486 1486 1486 1485 1484
Wind_Speed
8 8 9 11 12 13 14 14 15 15 16 16 17 18 18 18 18 18 18 18 19 18 18 19 20 20 21 22 22 23 24 24 25 26 26 27 27 28 28 28 27 27 27 26 26 25 24 21 20 20 20 22 23 21 18 19 20 19 18 18 20 22 25 28 33 37 37 35 34 35 34 33 31 29 31 33 30 28 30 29 26 27 28 31 36
9 9 10 13 14 14 15 15 16 16 17 17 18 18 18 18 18 18 18 18 18 18 18 19 20 20 21 22 22 23 24 25 26 27 28 28 29 29 29 29 29 28 28 27 26 25 25 22 21 21 20 22 23 22 20 21 22 22 20 19 20 21 21 24 29 33 38 39 37 35 34 32 31 29 28 30 30 26 27 28 26 26 27 30 34
10 10 12 14 14 14 15 16 16 17 17 18 18 18 18 18 18 18 18 18 18 18 18 19 19 20 21 21 22 23 24 25 26 27 28 29 29 30 30 30 30 29 27 26 25 24 23 22 22 22 20 22 24 23 23 25 27 28 25 22 22 23 23 24 25 28 34 39 39 37 35 33 32 31 28 29 30 26 24 26 27 27 27 30 33
11 11 13 14 14 15 16 17 17 18 18 18 18 18 18 17 17 17 18 18 18 18 18 18 19 19 20 21 22 23 24 25 26 27 28 29 30 31 31 31 31 29 27 25 24 22 21 21 22 21 20 22 25 25 26 29 30 30 28 26 25 27 28 26 25 25 26 32 37 37 35 34 33 31 28 28 30 28 23 24 28 28 28 30 33
10 11 12 14 16 17 18 18 18 18 18 18 17 17 17 17 17 17 17 17 18 18 18 18 19 20 21 21 22 23 24 25 26 27 28 30 31 31 31 31 30 27 25 24 23 21 20 20 21 21 20 20 23 26 28 30 30 29 29 28 27 27 28 29 28 26 24 27 33 35 35 33 31 29 26 25 28 29 26 24 25 28 29 31 32
11 12 14 17 18 18 19 18 18 18 18 17 17 16 16 16 16 17 17 17 18 18 18 19 20 20 20 21 22 23 24 25 26 27 29 29 30 30 30 29 27 25 23 21 21 20 20 20 20 20 19 20 25 28 28 29 29 28 28 29 28 27 27 29 28 27 27 27 28 31 34 34 32 30 26 24 25 27 28 26 24 27 30 32 34
12 14 17 19 19 19 19 18 18 17 17 17 16 16 16 16 16 16 17 17 17 18 18 19 19 19 20 20 21 22 24 25 26 27 28 28 28 27 27 26 24 22 21 19 19 19 19 19 19 19 19 22 26 28 28 28 27 28 28 27 28 27 27 28 28 27 28 28 28 29 32 33 32 30 27 25 25 27 28 27 26 26 28 32 35
14 16 18 19 19 19 18 18 18 17 17 17 17 17 17 17 17 17 17 17 17 18 18 18 18 18 19 19 19 21 24 25 26 27 27 27 26 24 23 24 23 21 19 18 17 18 19 18 17 17 18 21 26 27 29 30 31 32 32 28 27 27 27 29 30 28 27 28 29 29 29 30 31 31 28 25 24 26 26 27 28 27 27 32 36
16 18 19 19 19 19 18 18 18 17 17 17 17 17 17 17 18 17 17 17 18 18 17 17 18 18 18 18 17 20 24 25 26 27 27 26 25 22 21 22 21 20 19 19 17 18 19 18 17 18 20 22 26 29 32 35 36 36 36 34 31 29 29 29 28 28 27 27 29 29 28 28 29 31 31 27 25 26 25 25 28 28 27 32 38
18 19 19 19 19 19 19 18 18 18 18 18 18 18 18 19 18 18 18 18 18 18 17 17 18 18 18 17 16 18 23 25 25 25 25 25 24 23 21 20 20 19 20 20 18 18 19 17 18 20 21 23 26 29 35 39 38 37 37 36 33 31 30 29 27 27 28 28 28 28 28 29 29 29 31 31 30 29 26 24 27 28 28 30 34
20 20 20 20 20 20 19 19 19 19 19 19 19 19 19 20 19 19 19 19 19 18 18 18 19 19 19 18 17 18 23 26 25 25 25 24 24 23 21 20 20 19 20 19 18 19 18 18 19 19 20 24 24 27 36 42 40 38 37 35 32 31 29 29 29 29 29 29 29 29 29 31 32 30 30 32 32 31 28 25 26 27 29 29 28
21 21 21 21 20 20 19 19 19 20 20 20 20 20 20 20 20 20 20 20 19 19 19 20 21 21 20 19 20 22 24 26 25 25 26 24 23 22 20 19 19 19 19 19 18 19 18 19 19 18 21 24 23 28 39 44 42 40 39 36 33 30 28 29 30 29 29 29 30 30 31 32 33 31 30 30 31 31 30 28 26 25 28 31 30
22 22 22 21 20 20 19 19 20 20 20 21 21 21 20 21 21 20 21 21 20 20 21 21 22 23 21 20 22 25 26 26 26 27 26 24 22 22 19 18 19 18 19 19 18 19 19 20 20 20 22 23 24 32 41 43 43 42 39 37 35 32 32 32 29 27 28 28 29 30 32 33 34 34 33 31 32 34 34 31 28 25 26 30 33
23 22 22 21 20 20 19 20 20 20 21 21 21 21 21 21 21 21 21 21 21 22 22 22 23 24 22 20 22 26 27 27 27 28 27 24 23 22 20 19 19 19 19 20 19 19 19 21 22 23 24 23 27 35 41 42 41 39 37 36 35 35 35 33 28 27 28 30 31 32 33 34 34 36 35 32 31 34 36 33 31 29 27 29 32
23 23 22 21 20 20 19 20 20 20 21 21 21 21 21 21 21 21 21 22 22 22 23 23 23 24 24 22 22 25 27 27 28 29 29 26 23 21 19 18 19 19 19 20 20 20 20 21 23 26 25 24 29 35 38 40 39 34 32 34 34 34 32 29 29 31 31 31 32 33 33 31 31 32 33 30 28 32 36 35 34 34 32 30 30
23 23 22 21 20 19 19 20 20 20 20 20 20 20 20 21 21 22 22 22 22 23 23 23 23 24 25 24 23 24 26 28 29 30 31 28 23 20 19 18 19 19 20 20 20 20 20 21 25 27 25 26 31 35 37 39 37 32 33 35 35 35 33 31 33 34 31 30 30 30 29 27 26 27 28 27 26 29 33 35 35 34 34 34 31
23 23 21 20 19 19 19 19 20 19 19 19 20 20 20 20 21 21 21 22 22 23 23 23 23 24 24 24 23 22 25 28 29 30 32 30 24 20 20 19 18 20 20 20 20 20 21 22 26 29 28 28 32 34 36 39 37 33 35 37 36 37 36 36 37 35 31 28 28 26 24 22 22 22 24 24 23 25 30 33 33 32 33 35 33
22 22 21 20 19 18 18 18 18 18 18 18 19 19 19 19 20 20 21 21 22 22 22 22 23 23 23 24 23 22 23 26 28 29 31 30 25 20 20 20 18 19 20 20 20 21 22 23 27 30 29 30 32 34 36 39 38 34 34 38 38 37 37 37 38 38 35 30 26 23 19 18 20 20 20 21 20 21 26 31 31 31 32 34 33
21 21 21 20 19 18 18 18 17 17 18 18 18 18 18 18 19 19 20 20 20 21 21 21 22 23 23 23 24 23 23 25 27 28 29 30 27 20 19 20 19 18 20 20 20 21 21 22 26 29 29 29 32 34 36 39 38 33 34 38 38 36 36 36 36 38 37 32 27 23 18 17 18 17 16 17 16 17 22 27 29 30 32 32 32
21 21 20 20 19 19 18 18 17 17 17 17 17 17 17 16 17 18 18 18 18 19 19 20 21 22 22 23 23 24 24 24 25 26 26 27 27 23 20 21 19 17 19 21 20 21 21 22 24 28 28 29 33 35 37 39 37 34 34 38 38 36 35 34 33 34 35 33 28 24 20 19 18 15 14 13 13 13 17 22 26 29 30 31 32
21 20 20 19 18 17 17 17 17 16 16 16 16 16 15 15 16 17 16 16 17 18 18 18 19 20 21 22 23 23 24 24 24 25 24 24 25 24 21 21 19 17 18 20 20 20 21 22 24 27 28 29 33 38 40 39 37 36 36 37 36 35 35 34 33 33 34 34 30 26 24 22 20 17 15 13 10 10 12 17 21 25 28 30 31
21 20 18 17 16 16 16 16 16 15 15 15 14 14 14 14 15 15 14 15 16 17 17 16 15 16 17 19 21 22 23 24 24 24 22 21 22 22 21 21 20 16 16 20 20 20 21 22 23 27 30 30 32 36 40 40 38 38 38 37 35 36 36 36 35 35 35 35 34 31 28 25 22 20 18 15 11 8 7 11 16 19 23 27 29
20 18 16 16 15 15 15 15 15 14 14 14 13 13 13 13 13 13 13 12 12 13 13 13 12 12 13 14 16 19 20 21 24 24 22 20 20 20 19 19 19 16 15 18 20 19 20 21 23 27 32 32 31 32 35 38 40 39 39 38 38 38 38 38 38 38 37 37 37 37 34 28 25 23 21 20 16 11 8 6 9 12 15 20 25
18 17 16 15 14 13 13 13 13 12 12 12 12 12 12 11 11 11 11 9 8 9 10 10 10 11 11 11 13 16 16 18 21 24 24 23 22 22 21 20 20 18 15 16 18 18 20 23 25 28 31 31 29 28 31 36 39 40 41 41 41 42 42 41 40 40 39 39 40 41 39 34 30 25 23 23 20 14 10 6 2 3 6 12 18
18 17 15 14 13 12 11 11 10 10 10 10 8 8 9 8 7 8 8 7 7 8 8 9 10 10 11 11 11 13 15 17 20 23 25 25 24 24 24 23 22 20 17 17 18 20 23 26 27 27 29 30 29 27 28 32 36 38 41 41 41 43 44 43 42 41 41 41 41 42 41 39 35 29 24 23 22 18 14 11 8 4 0 5 10
17 16 14 13 12 11 10 9 8 9 9 8 6 5 6 6 4 5 6 5 7 7 7 8 9 9 10 11 11 11 13 16 20 23 25 25 25 24 25 25 24 22 20 19 18 19 23 25 25 25 26 28 28 27 28 30 32 35 37 36 38 43 45 44 44 43 42 42 42 42 43 42 39 34 28 26 24 22 20 17 14 11 6 2 3
17 15 14 13 12 11 10 9 8 7 7 6 5 4 4 4 4 4 4 4 5 6 6 8 8 9 10 10 10 11 11 15 20 23 24 25 26 25 25 27 26 22 20 19 18 18 21 23 24 23 24 27 27 26 27 28 29 33 35 34 37 43 44 42 43 42 41 41 41 43 44 43 42 38 34 31 28 25 23 22 19 17 14 8 3
16 15 14 12 12 10 9 9 8 6 6 5 4 3 3 3 3 3 3 4 4 4 5 6 7 8 8 9 10 10 10 14 19 22 24 25 26 26 27 27 26 22 19 19 19 19 20 21 22 23 24 26 28 27 28 28 29 31 33 33 36 40 42 42 42 42 40 39 40 43 45 45 45 43 38 34 32 28 26 24 23 21 18 13 8
16 15 13 12 11 10 9 8 8 7 6 6 5 4 4 4 3 2 2 4 4 5 5 5 6 7 7 8 10 10 10 14 18 21 22 23 24 25 26 27 27 23 18 17 19 20 20 21 22 24 25 27 28 29 30 30 29 29 31 33 35 38 41 44 45 44 43 40 40 43 46 47 47 46 41 37 34 31 29 27 26 24 22 20 17
15 14 13 12 11 11 10 8 8 7 7 6 5 4 3 3 4 3 1 3 5 6 6 5 7 9 8 7 10 11 12 14 17 19 20 21 22 23 24 25 26 24 19 19 20 20 21 22 23 25 26 27 28 30 31 31 30 30 31 33 35 35 37 40 44 45 44 42 40 42 45 46 46 46 44 40 37 34 31 29 28 26 25 24 23
15 14 14 13 12 12 10 9 8 8 7 7 6 5 3 1 2 2 2 3 4 6 7 7 8 9 9 9 11 12 13 14 16 17 19 20 21 22 22 24 26 25 23 22 21 20 21 23 23 24 26 27 28 29 30 30 30 29 30 31 34 34 35 38 42 43 44 44 42 41 44 45 45 44 44 43 41 37 32 28 27 28 28 26 24
15 14 13 13 13 13 10 9 9 8 7 8 7 6 6 4 2 3 3 4 5 5 7 8 8 9 10 10 11 12 13 14 15 16 18 19 20 21 21 23 26 25 23 21 20 20 22 23 23 24 26 27 28 29 29 29 29 29 29 30 33 33 34 36 39 40 42 43 43 42 43 44 43 43 42 43 44 42 37 30 26 28 31 30 27
14 14 13 14 14 14 11 10 10 9 8 8 7 6 5 5 4 3 3 4 6 7 8 9 9 9 10 11 12 12 13 14 14 15 17 18 20 20 21 23 24 24 23 21 19 20 22 22 23 24 25 26 27 28 28 27 28 28 27 28 31 32 32 34 36 37 38 39 41 42 42 41 42 42 42 41 43 45 43 35 29 29 32 33 32
14 14 14 14 15 14 12 10 10 9 8 8 7 6 5 4 4 4 3 4 6 7 8 10 11 10 10 12 12 13 13 14 14 15 16 18 19 20 21 21 20 20 20 19 19 19 21 21 22 23 24 25 26 27 27 26 27 27 27 27 29 30 31 33 35 36 35 36 39 40 39 39 39 40 40 40 40 43 45 42 35 32 31 32 32
14 14 15 16 15 13 12 11 10 9 9 8 7 7 6 5 4 3 3 3 3 4 5 8 10 11 12 12 13 14 14 14 14 15 15 17 18 19 19 17 16 16 17 18 17 18 18 19 20 22 23 23 24 25 25 24 25 26 26 25 27 29 31 33 35 35 34 34 37 38 37 36 37 38 38 38 39 39 40 41 40 36 31 29 28
14 14 16 17 15 13 12 11 10 9 9 8 7 7 6 5 5 4 3 3 3 4 4 5 8 12 14 13 13 14 15 13 13 14 15 16 18 18 16 14 15 15 16 16 16 17 17 18 18 20 20 21 22 23 23 22 22 23 24 24 25 28 31 33 33 33 33 32 33 34 34 34 35 36 36 37 37 36 34 35 38 38 35 32 31
14 13 15 17 16 14 12 11 11 10 10 9 8 7 7 6 6 5 5 4 4 5 5 5 6 10 12 12 13 15 14 12 13 14 15 17 18 16 13 13 14 14 14 15 16 17 17 17 17 18 19 20 20 21 21 21 21 22 23 24 24 27 30 32 32 31 31 31 31 31 31 32 33 34 34 33 33 34 34 32 31 35 37 35 34
14 13 14 16 16 15 13 12 12 12 12 10 9 8 8 8 7 6 6 6 5 6 6 6 6 7 7 8 11 14 14 12 12 13 13 14 14 12 11 11 13 13 14 14 15 16 16 16 17 17 18 19 20 20 20 21 21 21 22 23 24 26 29 31 31 30 30 30 30 29 30 31 31 32 32 31 31 33 35 32 28 31 37 37 35
14 14 15 16 17 16 14 12 12 13 12 11 11 10 9 9 8 8 7 7 6 6 6 6 7 7 6 6 8 10 10 9 8 8 8 9 9 9 10 10 11 12 13 13 14 15 15 16 16 17 17 18 19 19 19 20 20 21 22 23 24 26 27 30 31 30 29 29 29 29 29 29 29 29 31 31 30 32 34 33 29 29 32 36 36
15 14 14 15 17 17 15 13 12 12 12 12 12 12 11 11 10 9 8 8 7 7 7 7 6 6 6 6 7 7 8 8 8 7 8 8 9 9 9 9 10 11 12 12 13 14 14 15 16 16 16 18 19 18 18 19 20 20 21 22 24 25 26 29 30 29 27 27 28 29 28 28 27 28 29 30 30 30 30 31 31 29 28 30 34
14 14 14 14 16 17 16 15 13 13 13 12 12 12 12 12 11 11 10 9 9 8 8 8 7 6 7 8 7 7 7 7 7 7 8 8 8 8 9 9 9 10 11 11 12 13 14 14 15 15 16 18 19 19 19 19 19 20 20 22 24 25 26 28 30 29 26 25 27 28 27 26 26 27 28 28 28 28 28 29 29 29 27 26 28
15 14 13 14 16 17 17 16 15 14 13 13 13 13 13 12 12 12 11 11 10 9 9 9 7 7 8 9 7 6 6 7 7 7 8 7 7 8 8 8 8 9 10 10 10 11 13 14 14 15 15 16 18 19 19 19 19 20 20 20 23 24 25 27 29 29 26 25 25 26 26 25 24 25 26 26 26 26 27 27 27 28 28 26 25
16 15 14 14 15 17 17 16 15 14 14 14 13 13 13 13 13 12 12 12 11 11 10 10 9 8 9 10 9 7 6 7 7 7 7 7 7 8 8 7 8 8 9 9 9 10 12 13 13 14 14 14 15 17 17 18 19 20 19 20 21 22 23 25 27 29 27 25 23 24 24 24 23 23 24 25 24 24 25 26 26 25 26 25 25
16 15 15 15 15 16 16 16 15 15 14 14 14 14 14 14 13 13 13 13 12 12 11 11 10 9 10 10 10 8 6 6 7 7 7 7 7 7 7 7 8 8 8 8 8 10 11 12 13 14 15 14 14 14 15 16 18 19 19 19 19 20 21 22 24 26 27 25 22 21 22 23 23 21 21 22 23 23 23 24 24 24 24 23 24
17 16 16 16 16 16 16 16 16 15 15 15 15 14 14 15 14 14 14 13 13 12 12 12 11 11 10 10 9 8 7 7 7 8 8 7 7 7 7 7 8 9 9 8 9 10 11 11 11 13 14 15 15 14 12 14 16 17 18 18 18 18 18 19 20 22 24 24 22 20 19 20 21 20 19 20 21 21 21 21 22 22 22 23 23
17 17 17 17 17 18 17 17 16 16 15 15 15 15 15 15 15 15 15 14 13 13 12 12 12 12 11 11 10 10 9 9 8 8 8 8 8 8 7 7 8 9 9 9 10 11 12 12 11 12 13 13 14 14 11 11 13 14 16 17 18 17 16 16 17 19 20 21 22 21 19 18 19 18 18 18 19 20 19 19 19 19 20 20 21
17 17 18 18 18 19 19 18 17 16 16 16 16 15 15 15 15 15 15 15 15 14 13 13 13 13 12 12 11 11 11 10 10 9 9 9 9 9 8 8 9 9 9 9 10 10 10 11 11 12 12 12 13 13 10 9 11 12 13 15 18 18 17 16 16 16 16 17 19 20 19 18 17 16 16 17 18 19 18 18 17 17 17 17 17
18 18 18 19 19 19 19 19 18 18 17 17 17 17 16 16 15 15 15 16 16 16 15 14 14 14 13 13 13 12 12 11 11 11 11 10 10 10 10 10 10 10 10 10 11 11 11 11 11 11 11 11 12 12 10 8 9 10 11 14 16 17 17 17 16 15 14 15 16 17 18 17 17 16 15 14 15 17 17 17 15 15 15 15 15
19 18 18 19 20 20 20 19 19 18 18 18 18 18 18 17 17 16 16 16 16 16 16 15 15 15 14 14 14 13 13 13 13 13 12 12 11 11 11 11 12 12 12 11 11 12 13 13 13 12 10 10 10 10 9 8 8 8 10 13 14 15 16 17 17 16 15 14 14 14 15 15 16 16 15 14 13 13 15 16 15 14 13 13 14
20 19 18 18 19 20 20 20 19 18 18 18 18 18 18 18 18 17 17 17 17 17 17 16 16 16 15 15 15 14 14 14 14 14 13 13 13 12 12 12 13 14 14 13 13 13 13 12 13 13 12 11 10 9 8 7 8 9 11 12 13 14 15 15 16 17 16 15 14 14 13 13 14 15 15 14 13 11 11 14 15 13 12 11 12
22 21 20 19 19 19 19 20 20 19 18 18 18 18 18 19 18 18 18 17 17 17 18 17 17 17 17 16 16 16 16 15 15 15 15 14 14 14 14 15 15 15 15 14 14 14 13 12 12 13 13 12 11 10 8 7 9 11 12 12 12 13 14 14 14 15 16 15 15 15 14 13 13 13 13 13 13 11 10 11 12 12 11 10 10
Wind_Direction
96 97 99 103 102 98 98 98 98 100 101 97 94 92 90 88 85 82 78 75 71 67 63 59 55 50 47 45 42 39 36 33 33 31 30 28 27 25 24 23 21 19 17 14 11 9 9 7 358 351 350 351 351 348 341 336 336 335 333 329 325 323 318 313 313 306 295 295 300 299 295 294 293 292 291 291 286 274 270 272 271 265 256 244 239
99 99 102 105 103 100 100 101 103 103 101 98 95 93 90 87 85 82 78 75 72 68 64 60 56 51 47 44 41 38 35 32 31 29 27 26 25 23 21 20 18 17 16 13 10 9 8 6 359 354 354 353 351 348 343 339 338 335 332 329 325 325 325 319 315 312 303 299 298 298 298 298 294 293 291 290 289 279 266 269 272 267 258 244 238
106 104 106 108 107 106 105 104 105 103 100 98 96 93 90 87 84 81 78 75 71 67 63 59 55 50 46 43 40 37 33 31 29 27 25 24 22 21 19 17 16 16 14 12 9 7 5 2 358 355 354 353 351 348 344 341 340 338 334 331 327 322 322 322 317 313 308 305 303 301 301 301 295 292 291 288 288 280 266 266 271 268 260 248 237
110 107 108 111 110 110 108 107 105 103 100 98 95 93 90 87 84 80 77 74 70 65 61 57 53 49 45 42 39 35 32 30 28 25 24 22 20 18 16 15 14 13 12 11 9 5 3 360 357 354 352 351 350 348 344 342 341 339 335 332 329 324 321 321 318 314 309 307 308 308 305 303 299 295 292 289 287 284 274 270 271 267 261 250 237
115 111 113 114 114 112 110 108 105 102 99 96 93 91 89 86 83 80 76 72 68 64 58 54 51 46 42 39 36 34 31 29 27 24 23 21 19 16 14 14 13 11 10 9 6 5 3 360 356 354 352 350 349 346 343 343 341 339 336 333 330 325 322 320 317 314 308 305 308 311 309 305 301 296 293 289 287 285 280 276 275 269 260 251 241
118 119 120 118 116 113 110 108 105 102 100 96 93 91 88 86 83 79 75 70 66 62 56 52 48 44 40 37 35 32 29 26 24 23 21 20 18 15 14 14 12 11 10 6 5 5 3 359 355 355 354 351 350 349 346 344 342 339 336 333 332 327 322 321 318 313 308 306 306 309 311 310 304 297 292 289 286 283 281 280 278 271 262 253 248
125 126 125 120 117 113 110 108 105 102 99 96 93 91 88 86 83 78 74 69 65 61 56 51 46 43 40 37 35 31 27 24 22 21 20 18 17 15 14 13 12 11 9 7 6 4 1 358 355 354 354 352 352 352 349 345 342 340 336 332 330 328 323 322 320 315 309 308 306 305 308 310 307 300 294 290 287 282 279 280 280 275 266 255 249
131 130 125 121 117 114 111 108 104 101 97 94 92 90 88 85 82 78 74 70 66 60 55 50 46 43 40 37 35 31 27 22 19 18 17 16 15 14 13 13 12 11 9 8 6 2 359 357 355 353 352 351 351 352 351 348 344 341 339 335 329 325 323 324 323 318 312 308 307 306 306 306 306 303 298 294 293 286 279 278 278 277 272 261 253
134 131 125 121 117 113 111 107 103 99 96 94 91 89 87 84 81 79 74 70 66 61 56 51 46 43 40 37 35 32 27 23 18 15 14 14 13 14 14 13 11 9 9 8 5 2 360 357 355 354 351 349 349 349 351 350 346 343 342 339 334 328 325 325 323 318 313 309 307 307 306 304 304 305 301 295 292 288 282 279 276 273 273 271 260
135 131 126 121 117 112 108 104 100 98 95 93 91 88 87 84 81 78 74 70 66 61 57 52 48 46 42 38 37 33 26 22 18 15 14 12 12 15 16 11 10 10 8 6 3 360 359 357 354 353 351 349 347 345 347 349 347 345 343 341 338 334 328 324 320 315 311 308 307 307 305 302 301 301 299 295 291 288 283 280 278 273 271 272 261
136 132 127 122 117 112 107 103 101 98 96 94 91 88 85 82 79 76 72 69 65 61 58 53 49 47 45 40 37 32 25 22 19 16 16 13 12 17 18 11 12 12 7 5 2 358 358 357 354 353 350 349 346 343 343 345 345 344 342 341 340 337 329 321 316 312 307 303 303 303 302 300 300 299 297 296 293 290 283 277 277 276 272 270 261
136 132 127 122 116 111 108 105 103 100 97 94 91 87 84 81 78 74 71 68 64 62 58 54 51 49 46 42 37 31 26 24 20 17 17 15 14 21 20 13 14 12 6 4 1 358 358 356 354 353 349 348 346 342 342 342 343 342 341 341 341 337 328 321 318 315 309 302 299 300 300 299 299 297 295 295 294 289 282 273 270 272 271 266 258
136 132 126 122 118 114 111 108 105 102 98 94 90 87 83 80 77 73 71 68 65 62 58 54 51 49 47 44 37 31 28 25 22 20 18 15 18 25 22 15 16 12 6 5 1 357 357 355 354 352 349 348 346 342 342 341 341 342 342 341 340 336 331 329 327 321 313 304 295 293 296 298 296 294 293 294 293 288 282 275 267 267 269 266 260
135 131 127 123 120 116 113 110 107 102 98 94 90 87 83 80 77 73 71 68 64 61 57 54 51 48 47 45 37 31 29 26 23 22 20 18 23 27 20 14 16 11 6 4 1 357 357 356 354 351 348 349 346 342 343 343 343 343 341 340 338 336 334 333 329 322 316 309 299 293 295 296 294 293 293 294 292 287 282 276 269 264 263 264 263
135 132 128 125 122 119 115 112 107 101 97 94 90 87 83 80 77 73 70 67 63 60 56 53 50 47 46 47 40 32 29 27 25 25 24 23 28 27 17 12 14 9 5 5 2 359 357 357 356 352 350 349 347 345 345 346 347 344 341 339 338 337 334 331 328 325 321 314 306 299 298 296 292 289 289 290 289 283 279 275 269 263 261 262 263
136 133 129 126 123 121 117 112 106 100 97 93 89 85 81 78 76 72 68 65 61 58 55 52 50 47 44 46 43 34 30 28 28 28 26 26 30 26 15 11 12 8 5 4 2 360 358 358 358 354 353 352 350 350 351 351 351 348 345 343 341 339 337 335 333 330 324 316 311 303 298 297 293 285 283 286 286 281 277 273 265 259 260 262 261
137 134 130 128 126 123 118 112 106 101 97 93 89 85 80 77 75 71 67 64 59 57 54 50 49 47 43 43 42 37 31 29 29 29 27 28 32 27 15 13 12 8 6 5 3 1 359 357 357 358 358 357 356 358 358 358 357 354 350 348 344 342 341 338 338 337 330 322 316 307 300 303 302 290 281 283 283 278 275 269 260 254 256 259 256
138 134 132 130 127 123 118 112 107 103 99 94 89 85 81 77 74 71 67 63 59 56 54 50 47 46 42 41 41 38 33 28 28 29 28 29 33 28 15 13 13 8 7 6 3 2 0 355 355 360 3 2 2 5 4 3 2 359 353 351 350 347 343 341 341 342 339 331 322 312 305 310 312 300 286 282 278 273 270 265 259 256 256 256 253
139 136 134 132 129 125 120 114 109 105 100 95 90 86 82 77 74 71 67 63 59 57 54 51 48 45 42 39 38 37 33 28 26 27 27 28 32 30 16 12 13 9 6 6 3 2 3 357 355 0 5 5 7 9 8 6 6 1 356 356 356 352 348 347 346 346 345 341 334 326 321 322 320 310 297 288 278 270 268 263 259 256 255 254 250
140 137 134 132 129 125 121 115 110 105 100 96 91 86 82 78 74 71 68 65 61 57 55 52 48 46 43 39 37 34 32 29 25 24 25 25 29 32 23 14 14 11 6 4 3 1 2 360 357 0 7 11 14 15 12 10 8 5 1 1 2 359 357 356 353 352 352 350 344 339 340 341 336 327 317 304 285 271 267 262 257 253 251 253 250
142 138 134 132 129 124 121 116 111 106 101 96 92 87 83 78 75 72 69 65 61 57 55 52 47 44 42 39 36 34 31 29 24 21 21 21 24 29 26 17 18 19 8 3 2 1 359 358 358 1 7 13 17 18 15 12 11 9 7 6 7 7 8 6 1 360 0 358 354 351 351 350 349 347 341 330 311 288 271 261 256 249 245 247 247
142 138 135 134 131 128 123 116 111 107 102 97 92 88 84 79 75 74 70 63 60 56 54 53 47 41 38 35 32 31 29 27 24 20 18 18 20 24 23 18 18 19 9 1 1 360 356 354 357 4 9 12 13 13 11 11 13 13 11 11 12 14 15 13 10 9 8 5 4 3 359 355 356 358 356 351 345 328 292 263 253 246 240 239 240
144 140 140 139 136 131 124 117 112 107 103 100 95 89 85 80 74 74 70 61 56 53 50 50 46 40 37 32 28 27 24 20 20 20 19 20 21 21 19 14 12 16 11 1 358 357 355 352 354 3 9 11 11 8 4 7 13 15 14 14 14 16 17 15 14 14 12 9 9 10 8 3 0 2 3 3 3 358 343 295 253 243 237 235 236
147 145 145 143 140 134 126 119 114 110 106 101 95 88 85 81 73 69 70 63 56 53 48 45 43 38 35 30 24 24 22 16 14 16 18 21 21 19 17 11 8 12 11 358 352 352 349 348 353 360 3 7 9 6 359 2 9 14 17 17 17 17 17 16 16 16 14 12 12 12 12 10 7 5 7 9 13 15 10 1 318 250 232 231 236
151 149 148 147 145 141 136 129 123 119 112 104 99 91 84 82 74 66 66 60 55 52 45 42 40 33 30 28 21 19 18 14 13 15 17 20 19 16 14 10 6 7 3 354 354 353 347 347 353 358 359 360 3 4 360 359 3 10 15 18 19 19 19 17 17 17 16 15 15 13 15 15 12 11 13 14 19 26 28 28 34 33 220 221 235
154 153 153 152 151 148 145 142 136 129 120 112 114 107 92 90 84 69 63 56 53 51 43 39 37 30 26 24 18 15 12 10 13 16 17 19 18 15 11 9 8 7 358 351 357 357 349 349 353 355 356 357 359 0 0 359 1 5 8 11 14 19 21 19 18 18 17 17 17 16 16 17 15 16 21 21 22 29 32 33 34 33 30 19 246
159 159 159 158 157 156 156 156 152 139 130 128 129 121 105 98 87 71 61 51 45 43 40 37 32 28 25 18 14 15 9 6 11 14 16 18 18 16 13 9 9 8 356 349 358 358 351 351 353 354 357 358 358 0 360 359 1 4 4 4 8 15 20 21 20 20 19 18 19 18 18 19 17 19 24 24 22 27 34 35 35 33 29 20 342
165 166 165 163 163 164 167 167 161 153 153 152 146 138 125 107 89 76 73 67 53 40 39 35 26 25 24 15 14 16 7 3 9 13 15 16 16 16 15 11 10 8 357 357 7 4 353 352 355 357 359 359 359 0 0 359 360 1 3 4 5 10 17 20 22 23 22 20 21 20 19 19 18 19 23 23 19 23 32 37 39 38 36 33 30
171 170 170 170 169 171 174 172 167 168 173 166 160 167 167 148 134 109 58 61 65 59 52 43 30 30 28 14 13 18 9 5 10 13 14 14 14 14 13 11 12 10 5 11 16 6 355 356 358 358 360 360 359 360 360 359 358 358 1 3 3 6 11 16 21 24 22 21 21 20 18 17 15 18 24 26 23 26 34 40 43 44 44 46 46
175 175 176 177 176 175 177 178 177 178 178 173 171 177 169 140 136 149 110 41 47 47 46 43 34 35 36 18 11 17 15 10 11 13 12 13 14 13 11 12 16 18 19 24 21 6 358 1 1 359 360 360 359 359 359 357 357 357 359 1 3 3 6 12 20 24 23 22 21 18 17 15 13 17 24 28 28 30 35 39 42 44 47 50 51
179 180 182 184 184 181 179 181 183 181 179 180 180 181 183 146 57 79 69 42 33 27 28 30 26 26 30 21 10 12 13 11 11 11 10 11 13 12 10 13 19 23 26 26 18 6 2 3 1 0 1 0 359 359 359 358 357 357 357 0 3 3 3 9 18 22 21 21 19 16 16 16 15 17 22 27 30 32 34 35 36 40 46 50 53
181 182 184 186 186 183 181 183 185 182 181 184 185 184 191 207 274 329 1 28 32 21 17 18 16 16 18 15 10 7 5 6 9 9 7 9 10 9 10 14 18 24 28 23 12 6 5 4 2 2 1 0 0 0 359 360 359 358 359 0 2 3 2 5 12 18 19 18 17 16 15 16 16 17 20 25 30 34 34 33 33 37 43 48 52
182 182 184 185 184 182 181 184 185 183 182 184 185 187 190 195 213 252 295 336 352 358 0 0 4 8 7 6 7 4 359 2 6 6 6 8 7 6 11 14 15 19 23 18 8 6 7 4 3 3 1 0 1 1 360 1 1 359 0 1 1 1 1 3 10 17 17 15 16 16 14 13 15 18 20 22 28 34 37 36 34 36 40 44 48
183 183 183 182 181 181 182 184 184 184 185 185 186 189 192 191 195 212 241 282 311 327 332 332 338 350 357 358 359 358 357 360 2 3 6 8 5 6 13 13 10 11 15 11 5 6 6 3 2 3 1 0 2 1 360 2 3 1 1 2 1 0 1 3 11 17 17 13 15 17 15 11 14 19 21 21 23 31 37 39 39 38 38 40 44
184 187 188 184 181 182 185 186 185 185 187 189 189 190 192 195 199 209 226 248 274 295 304 307 314 326 340 348 350 351 353 355 357 2 6 6 6 11 15 9 2 5 8 6 4 4 3 2 2 2 1 1 2 1 359 1 3 3 2 1 0 0 2 5 12 20 20 14 13 17 16 13 14 19 22 23 23 26 32 37 40 42 42 43 44
184 190 193 189 186 187 190 189 189 189 190 191 195 197 199 205 211 222 237 249 263 280 284 283 293 309 324 332 336 341 345 347 353 1 5 5 9 16 13 359 355 1 3 0 1 2 1 1 1 1 360 360 1 0 359 0 2 3 3 2 360 0 3 5 11 21 23 15 12 15 16 15 16 18 21 24 24 24 26 30 37 43 48 52 54
187 191 195 194 193 195 196 194 196 198 197 197 202 206 210 217 223 231 242 253 266 280 285 282 287 302 315 319 319 325 335 345 354 357 357 359 5 10 2 350 352 358 357 356 358 359 359 359 359 359 358 358 358 359 359 0 1 1 3 4 1 1 4 6 11 22 25 17 12 13 14 16 19 20 21 23 24 25 26 27 32 40 47 54 58
192 194 196 197 197 198 200 201 204 208 208 208 212 217 220 225 230 237 246 255 264 274 281 285 287 293 300 302 306 316 330 344 351 349 346 348 353 352 346 346 351 354 354 355 356 356 357 357 356 356 357 357 358 359 360 0 1 1 3 4 4 4 6 8 14 24 26 19 15 16 15 17 20 22 22 24 25 27 29 29 31 38 46 53 58
197 200 203 202 200 200 202 205 208 213 216 218 221 226 228 230 235 240 246 254 262 270 276 282 286 289 292 292 298 309 319 327 329 327 327 331 336 337 340 343 348 351 353 354 355 356 357 356 355 356 356 357 359 1 0 0 2 4 4 6 7 8 8 10 16 24 25 21 21 22 19 16 20 23 24 26 28 29 31 33 33 37 45 54 61
199 204 209 209 204 202 205 209 211 216 221 223 227 230 231 233 238 242 246 251 257 264 272 277 282 287 287 284 285 292 302 306 306 309 315 320 325 332 336 338 341 346 349 350 352 354 356 357 357 356 355 356 360 2 2 1 4 7 8 8 10 12 12 13 18 26 28 24 25 27 23 17 19 24 26 28 30 32 33 36 37 38 42 51 60
200 205 212 213 208 205 210 215 217 220 225 227 229 232 233 235 238 241 245 251 255 259 266 271 275 276 279 283 289 294 297 299 299 302 308 314 319 325 329 332 335 340 344 346 348 350 352 355 356 356 355 356 359 2 4 5 7 10 10 10 13 15 16 16 20 27 31 28 26 28 27 21 19 22 26 29 31 34 36 38 40 41 43 47 56
204 205 209 212 210 209 213 218 221 224 228 229 231 233 234 236 239 241 244 249 253 256 260 263 265 266 274 286 300 308 302 295 293 296 303 309 313 316 322 327 329 331 337 341 342 344 347 349 352 356 357 355 356 1 4 6 8 10 10 11 14 16 17 18 21 26 30 28 24 24 27 27 23 22 26 28 31 35 38 39 41 43 46 48 52
207 206 207 210 211 212 215 219 223 227 229 230 232 234 235 237 240 242 244 247 251 253 255 257 258 259 268 283 298 310 306 292 286 291 297 300 304 309 314 320 322 324 330 334 334 338 343 345 348 355 359 358 356 359 2 5 9 11 11 11 14 16 16 18 20 23 27 28 21 17 22 26 26 24 25 28 30 34 37 40 42 44 47 50 52
209 210 211 212 213 215 218 221 225 228 230 232 233 234 235 237 240 242 244 246 249 249 250 252 253 251 259 273 286 296 293 282 279 287 292 292 297 302 305 308 312 317 323 325 325 331 340 344 344 349 356 2 2 0 360 2 7 11 11 10 12 14 15 18 20 21 24 26 22 16 17 22 26 28 28 27 29 33 35 38 42 45 47 50 55
211 214 216 216 217 219 220 223 226 229 231 233 233 234 236 238 239 241 242 244 247 248 247 247 249 248 250 258 266 270 271 272 276 282 285 285 290 295 297 300 305 310 315 316 315 323 336 345 345 344 349 358 4 6 2 358 1 8 11 11 11 12 13 15 19 21 22 25 26 22 18 18 23 31 34 31 30 32 35 37 43 48 48 48 53
215 218 220 220 221 222 222 224 229 230 231 233 233 234 236 238 238 240 241 242 244 246 246 244 245 246 247 251 255 257 262 267 272 276 278 280 284 286 288 292 297 302 307 307 307 316 329 339 344 344 344 349 358 5 6 359 359 6 11 12 13 14 13 13 18 21 21 23 27 28 25 20 20 28 36 37 35 35 37 39 44 50 51 49 50
221 223 224 223 224 225 225 227 230 232 232 233 233 233 236 237 237 239 240 240 241 243 244 245 245 245 247 250 253 255 259 262 266 270 273 275 278 279 279 284 293 300 303 300 301 308 314 318 327 337 342 343 349 359 3 359 357 4 10 11 14 16 16 16 19 20 19 22 27 30 29 26 22 24 33 40 41 40 40 40 41 46 50 51 52
223 224 225 224 225 226 227 228 231 233 234 235 235 234 235 237 239 240 241 241 240 241 242 244 246 247 248 250 252 254 257 259 262 266 270 272 274 275 274 276 287 297 300 296 296 300 303 305 315 328 335 337 340 347 353 353 352 357 3 6 10 15 18 18 20 21 19 22 27 28 27 29 28 27 30 38 42 44 46 45 41 40 44 49 52
223 224 225 225 225 226 227 228 231 233 235 236 236 236 237 237 239 241 242 241 240 241 241 244 246 247 249 251 252 254 257 259 260 264 267 268 270 273 271 271 280 292 299 297 294 295 299 303 309 316 322 327 330 332 336 338 338 342 348 353 360 8 13 15 18 19 20 24 28 27 25 27 30 30 31 35 38 43 50 52 46 39 40 46 48
222 224 225 225 226 226 226 228 230 232 235 236 236 236 237 237 238 241 242 241 241 241 242 244 247 248 250 252 254 255 257 259 261 264 266 267 268 270 269 268 274 285 294 295 293 292 291 290 292 300 309 316 319 321 322 321 318 324 333 339 345 354 2 7 12 14 15 20 27 27 23 25 29 30 32 34 33 34 45 54 49 40 39 46 47
223 226 226 226 227 227 227 229 231 233 235 236 236 236 237 238 239 240 241 241 242 243 244 245 248 250 251 253 255 256 258 260 262 264 266 267 268 268 268 267 269 276 285 288 288 288 288 282 278 284 291 296 301 307 307 296 297 312 324 329 333 340 347 354 1 5 8 13 22 24 22 23 27 29 30 32 34 34 40 47 45 37 35 41 45